No particular awareness of the weather is required.    There are no Weather-warnings


Meteo18 Weather Cam more information Meteo18 Weather Cam


Thunder radar more information blitzortung!


Rain radar more information rain snow radar


Visit our other weather sites:

Template documentation
and downloads

And another site



Weather Underground History page Text

Daily Summary for February 23, 2018 Units:  Metric    English   Both
« Previous Day
Next Day »
Daily Weekly Monthly Yearly Custom
  High: Low: Average:
Temperature: -17.8 °C -18.8 °C -17.7 °C
Dew Point: -17.8 °C -20.9 °C -20.2 °C
Humidity: Humidity % 63 % 71 %
Wind Speed: 0 km/h 0 km/h 15.1 km/h
Wind Gust: 0 km/h - -
Wind:- - NE
Pressure: 0 hPa 34269.7 hPa -
Precipitation: 0 mm    
Historical Graphs
 
 
Tabular Data for February 23, 2018
Time Temperature Dew Point Pressure Wind Wind Speed Wind Gust Humidity Rainfall Rate (Hourly)
-17.8 °C -17.8 °C 0 hPa Calm     Humidity % 0 mm
00:02 -17.1 °C -20.6 °C 34313.7 hPa NNE 23 km/h 38.8 km/h 63 % 0 mm
00:08 -17.1 °C -20.5 °C 34313.7 hPa NNE 20.9 km/h 36.2 km/h 64 % 0 mm
00:14 -17.2 °C -20.6 °C 34313.7 hPa NE 23 km/h 25.9 km/h 64 % 0 mm
00:20 -17.2 °C -20.6 °C 34313.7 hPa NNE 26.2 km/h 36.2 km/h 64 % 0 mm
00:26 -17.2 °C -20.6 °C 34313.7 hPa NNE 26.2 km/h 33.6 km/h 64 % 0 mm
00:32 -17.2 °C -20.4 °C 34313.7 hPa NNE 20.9 km/h 36.2 km/h 65 % 0 mm
00:38 -17.2 °C -20.6 °C 34313.7 hPa NNE 28.5 km/h 38.8 km/h 64 % 0 mm
00:44 -17.2 °C -20.6 °C 34313.7 hPa ESE 17.9 km/h 46.7 km/h 64 % 0 mm
00:50 -17.3 °C -20.6 °C 34313.7 hPa NE 31.4 km/h 36.2 km/h 64 % 0 mm
00:56 -17.3 °C -20.5 °C 34313.7 hPa NE 15.6 km/h 36.2 km/h 65 % 0 mm
01:02 -17.3 °C -20.5 °C 34313.7 hPa NE 23 km/h 28.5 km/h 65 % 0 mm
01:08 -17.3 °C -20.5 °C 34313.7 hPa NNE 12.7 km/h 36.2 km/h 65 % 0 mm
01:14 -17.3 °C -20.5 °C 34313.7 hPa NE 23 km/h 41.4 km/h 65 % 0 mm
01:20 -17.3 °C -20.6 °C 34313.7 hPa NE 20.9 km/h 41.4 km/h 64 % 0 mm
01:26 -17.3 °C -20.5 °C 34313.7 hPa North 17.9 km/h 33.6 km/h 65 % 0 mm
01:32 -17.3 °C -20.6 °C 34313.7 hPa ENE 23 km/h 46.7 km/h 65 % 0 mm
01:38 -17.3 °C -20.6 °C 34313.7 hPa NNE 28.5 km/h 33.6 km/h 65 % 0 mm
01:44 -17.3 °C -20.6 °C 34313.7 hPa NNE 15.6 km/h 28.5 km/h 65 % 0 mm
01:50 -17.3 °C -20.4 °C 34313.7 hPa NE 17.9 km/h 28.5 km/h 66 % 0 mm
01:56 -17.4 °C -20.6 °C 34313.7 hPa NE 23 km/h 33.6 km/h 65 % 0 mm
02:02 -17.4 °C -20.5 °C 34313.7 hPa NNE 26.2 km/h 26.2 km/h 66 % 0 mm
02:08 -17.4 °C -20.5 °C 34313.7 hPa NE 31.4 km/h 31.4 km/h 66 % 0 mm
02:14 -17.4 °C -20.4 °C 34313.7 hPa NE 23 km/h 36.2 km/h 67 % 0 mm
02:20 -17.4 °C -20.6 °C 34303.6 hPa ENE 20.9 km/h 33.6 km/h 66 % 0 mm
02:27 -17.4 °C -20.6 °C 34303.6 hPa NNE 23 km/h 36.2 km/h 66 % 0 mm
02:33 -17.4 °C -20.6 °C 34303.6 hPa NE 15.6 km/h 44.1 km/h 66 % 0 mm
02:39 -17.5 °C -20.5 °C 34303.6 hPa NNE 33.6 km/h 33.6 km/h 67 % 0 mm
02:45 -17.6 °C -20.6 °C 34293.4 hPa NNE 26.2 km/h 31.1 km/h 67 % 0 mm
02:51 -17.6 °C -20.6 °C 34293.4 hPa NE 20.9 km/h 31.1 km/h 67 % 0 mm
02:57 -17.6 °C -20.4 °C 34293.4 hPa NE 17.9 km/h 31.1 km/h 68 % 0 mm
03:03 -17.6 °C -20.6 °C 34293.4 hPa NE 28.5 km/h 44.1 km/h 67 % 0 mm
03:09 -17.6 °C -20.5 °C 34293.4 hPa NNE 15.6 km/h 33.6 km/h 68 % 0 mm
03:15 -17.6 °C -20.5 °C 34293.4 hPa NNE 17.9 km/h 44.1 km/h 68 % 0 mm
03:21 -17.7 °C -20.4 °C 34293.4 hPa NE 12.7 km/h 31.1 km/h 69 % 0 mm
03:27 -17.7 °C -20.3 °C 34293.4 hPa NNE 28.5 km/h 36.2 km/h 70 % 0 mm
03:33 -17.7 °C -20.5 °C 34293.4 hPa ENE 10.3 km/h 33.6 km/h 69 % 0 mm
03:39 -17.7 °C -20.4 °C 34293.4 hPa NNE 20.9 km/h 36.2 km/h 70 % 0 mm
03:45 -17.8 °C -20.4 °C 34293.4 hPa ENE 28.5 km/h 36.2 km/h 70 % 0 mm
03:51 -17.8 °C -20.6 °C 34293.4 hPa NNW 28.5 km/h 36.2 km/h 69 % 0 mm
03:57 -17.8 °C -20.5 °C 34293.4 hPa NNE 23 km/h 31.1 km/h 70 % 0 mm
04:03 -17.8 °C -20.5 °C 34279.9 hPa NE 23 km/h 38.8 km/h 70 % 0 mm
04:09 -17.9 °C -20.6 °C 34293.4 hPa NE 15.6 km/h 33.6 km/h 70 % 0 mm
04:15 -17.9 °C -20.6 °C 34279.9 hPa North 20.9 km/h 33.6 km/h 70 % 0 mm
04:21 -17.9 °C -20.6 °C 34293.4 hPa NE 23 km/h 38.8 km/h 70 % 0 mm
04:27 -17.9 °C -20.6 °C 34279.9 hPa NE 17.9 km/h 31.1 km/h 70 % 0 mm
04:33 -17.9 °C -20.5 °C 34279.9 hPa NE 28.5 km/h 36.2 km/h 71 % 0 mm
04:39 -18 °C -20.4 °C 34279.9 hPa NE 33.6 km/h 33.6 km/h 72 % 0 mm
04:45 -18 °C -20.6 °C 34279.9 hPa NNE 20.9 km/h 25.9 km/h 71 % 0 mm
04:51 -18.1 °C -20.6 °C 34279.9 hPa NE 17.9 km/h 33.6 km/h 71 % 0 mm
04:57 -18.1 °C -20.7 °C 34279.9 hPa NNE 23 km/h 41.4 km/h 71 % 0 mm
05:03 -18.1 °C -20.6 °C 34279.9 hPa NE 23 km/h 25.9 km/h 72 % 0 mm
05:09 -18.2 °C -20.6 °C 34279.9 hPa NNE 15.6 km/h 25.9 km/h 72 % 0 mm
05:15 -18.2 °C -20.7 °C 34279.9 hPa ENE 10.3 km/h 36.2 km/h 71 % 0 mm
05:21 -18.2 °C -20.7 °C 34279.9 hPa NNE 17.9 km/h 28.5 km/h 72 % 0 mm
05:27 -18.2 °C -20.7 °C 34279.9 hPa ENE 10.3 km/h 31.1 km/h 72 % 0 mm
05:33 -18.3 °C -20.6 °C 34279.9 hPa NE 7.6 km/h 28.5 km/h 73 % 0 mm
05:39 -18.3 °C -20.6 °C 34279.9 hPa NE 28.5 km/h 33.6 km/h 73 % 0 mm
05:45 -18.3 °C -20.6 °C 34279.9 hPa NNE 17.9 km/h 33.6 km/h 73 % 0 mm
05:51 -18.3 °C -20.7 °C 34279.9 hPa NNE 20.9 km/h 25.9 km/h 73 % 0 mm
05:57 -18.3 °C -20.7 °C 34279.9 hPa East 17.9 km/h 25.9 km/h 73 % 0 mm
06:03 -18.4 °C -20.7 °C 34279.9 hPa NE 20.9 km/h 28.5 km/h 73 % 0 mm
06:09 -18.4 °C -20.7 °C 34279.9 hPa North 20.9 km/h 36.2 km/h 73 % 0 mm
06:15 -18.4 °C -20.7 °C 34279.9 hPa ENE 28.5 km/h 31.1 km/h 73 % 0 mm
06:21 -18.4 °C -20.7 °C 34279.9 hPa NE 20.9 km/h 33.6 km/h 73 % 0 mm
06:27 -18.4 °C -20.8 °C 34279.9 hPa NE 2.3 km/h 38.8 km/h 73 % 0 mm
06:33 -18.4 °C -20.8 °C 34293.4 hPa NE 5.1 km/h 31.1 km/h 73 % 0 mm
06:39 -18.4 °C -20.8 °C 34293.4 hPa North 26.2 km/h 33.6 km/h 73 % 0 mm
06:45 -18.4 °C -20.8 °C 34293.4 hPa NNE 23 km/h 31.1 km/h 73 % 0 mm
06:51 -18.4 °C -20.8 °C 34293.4 hPa NNW 12.7 km/h 36.2 km/h 73 % 0 mm
06:57 -18.4 °C -20.8 °C 34293.4 hPa ESE 10.3 km/h 33.6 km/h 73 % 0 mm
07:03 -18.4 °C -20.8 °C 34279.9 hPa North 20.9 km/h 33.6 km/h 73 % 0 mm
07:09 -18.5 °C -20.8 °C 34293.4 hPa NNE 12.7 km/h 28.5 km/h 73 % 0 mm
07:15 -18.5 °C -20.7 °C 34293.4 hPa NE 15.6 km/h 23.3 km/h 74 % 0 mm
07:21 -18.5 °C -20.8 °C 34293.4 hPa NE 7.6 km/h 28.5 km/h 73 % 0 mm
07:27 -18.6 °C -20.8 °C 34293.4 hPa ENE 10.3 km/h 25.9 km/h 74 % 0 mm
07:33 -18.6 °C -20.8 °C 34293.4 hPa ESE 7.6 km/h 18.2 km/h 74 % 0 mm
07:39 -18.7 °C -20.9 °C 34293.4 hPa NE 17.9 km/h 20.8 km/h 74 % 0 mm
07:45 -18.7 °C -20.9 °C 34293.4 hPa NNE 15.6 km/h 28.5 km/h 74 % 0 mm
07:51 -18.7 °C -20.9 °C 34293.4 hPa ENE 7.6 km/h 31.1 km/h 74 % 0 mm
07:57 -18.7 °C -20.8 °C 34293.4 hPa NNE 17.9 km/h 18.2 km/h 75 % 0 mm
08:03 -18.7 °C -20.8 °C 34293.4 hPa NE 5.1 km/h 20.8 km/h 75 % 0 mm
08:09 -18.7 °C -20.8 °C 34293.4 hPa NE 7.6 km/h 20.8 km/h 75 % 0 mm
08:15 -18.7 °C -20.8 °C 34293.4 hPa NE 17.9 km/h 38.8 km/h 75 % 0 mm
08:21 -18.7 °C -20.9 °C 34293.4 hPa NNE 17.9 km/h 25.9 km/h 74 % 0 mm
08:27 -18.7 °C -20.8 °C 34293.4 hPa NNE 10.3 km/h 28.5 km/h 75 % 0 mm
08:33 -18.7 °C -20.8 °C 34293.4 hPa North 7.6 km/h 20.8 km/h 75 % 0 mm
08:39 -18.8 °C -20.9 °C 34303.6 hPa NNE 7.6 km/h 28.5 km/h 75 % 0 mm
08:45 -18.8 °C -20.9 °C 34303.6 hPa NNE 20.9 km/h 33.6 km/h 75 % 0 mm
08:51 -18.7 °C -20.8 °C 34303.6 hPa NE 15.6 km/h 25.9 km/h 75 % 0 mm
08:57 -18.7 °C -20.8 °C 34303.6 hPa ENE 10.3 km/h 31.1 km/h 75 % 0 mm
09:03 -18.8 °C -20.9 °C 34303.6 hPa ENE 10.3 km/h 44.1 km/h 75 % 0 mm
09:09 -18.8 °C -20.9 °C 34303.6 hPa NE 23 km/h 33.6 km/h 75 % 0 mm
09:15 -18.7 °C -20.8 °C 34303.6 hPa NNE 15.6 km/h 36.2 km/h 75 % 0 mm
09:21 -18.7 °C -20.8 °C 34303.6 hPa NE 15.6 km/h 33.6 km/h 75 % 0 mm
09:27 -18.7 °C -20.8 °C 34303.6 hPa NNE 20.9 km/h 36.2 km/h 75 % 0 mm
09:33 -18.7 °C -20.9 °C 34303.6 hPa NNE 28.5 km/h 51.8 km/h 74 % 0 mm
09:39 -18.7 °C -20.8 °C 34303.6 hPa NE 10.3 km/h 31.1 km/h 75 % 0 mm
09:45 -18.6 °C -20.8 °C 34303.6 hPa NE 26.2 km/h 36.2 km/h 75 % 0 mm
09:51 -18.6 °C -20.8 °C 34303.6 hPa NNE 17.9 km/h 46.7 km/h 74 % 0 mm
09:57 -18.6 °C -20.7 °C 34303.6 hPa NE 28.5 km/h 31.1 km/h 75 % 0 mm
10:03 -18.6 °C -20.8 °C 34303.6 hPa NNE 26.2 km/h 44.1 km/h 74 % 0 mm
10:10 -18.6 °C -20.8 °C 34303.6 hPa NE 10.3 km/h 36.2 km/h 74 % 0 mm
10:15 -18.6 °C -20.8 °C 34303.6 hPa NNE 33.6 km/h 38.8 km/h 74 % 0 mm
10:21 -18.5 °C -20.7 °C 34303.6 hPa NE 26.2 km/h 36.2 km/h 74 % 0 mm
10:27 -18.4 °C -20.7 °C 34313.7 hPa ENE 15.6 km/h 36.2 km/h 74 % 0 mm
10:33 -18.4 °C -20.7 °C 34313.7 hPa NE 5.1 km/h 31.1 km/h 74 % 0 mm
10:40 -18.4 °C -20.6 °C 34303.6 hPa NE 12.7 km/h 25.9 km/h 75 % 0 mm
10:46 -18.3 °C -20.6 °C 34303.6 hPa ENE 15.6 km/h 28.5 km/h 74 % 0 mm
10:52 -18.1 °C -20.4 °C 34303.6 hPa NE 20.9 km/h 25.9 km/h 74 % 0 mm
10:58 -18 °C -20.3 °C 34303.6 hPa ENE 31.4 km/h 31.4 km/h 73 % 0 mm
11:04 -17.9 °C -20.4 °C 34303.6 hPa NNE 12.7 km/h 28.5 km/h 72 % 0 mm
11:10 -17.9 °C -20.4 °C 34303.6 hPa East 15.6 km/h 28.5 km/h 72 % 0 mm
11:16 -18 °C -20.4 °C 34303.6 hPa NNE 15.6 km/h 31.1 km/h 72 % 0 mm
11:22 -18 °C -20.4 °C 34303.6 hPa NE 10.3 km/h 31.1 km/h 72 % 0 mm
11:28 -17.9 °C -20.3 °C 34303.6 hPa NNE 23 km/h 28.5 km/h 72 % 0 mm
11:34 -17.9 °C -20.3 °C 34303.6 hPa NE 26.2 km/h 31.1 km/h 72 % 0 mm
11:40 -17.8 °C -20.4 °C 34303.6 hPa NE 26.2 km/h 31.1 km/h 71 % 0 mm
11:46 -17.8 °C -20.3 °C 34303.6 hPa North 12.7 km/h 28.5 km/h 71 % 0 mm
11:52 -17.7 °C -20.3 °C 34293.4 hPa ENE 10.3 km/h 28.5 km/h 70 % 0 mm
11:58 -17.5 °C -20.1 °C 34293.4 hPa NNE 31.4 km/h 33.6 km/h 71 % 0 mm
12:04 -17.3 °C -19.9 °C 34293.4 hPa NE 15.6 km/h 25.9 km/h 71 % 0 mm
12:10 -17.3 °C -20.1 °C 34293.4 hPa NNE 28.5 km/h 31.1 km/h 69 % 0 mm
12:16 -17.3 °C -20 °C 34293.4 hPa NNE 31.4 km/h 33.6 km/h 70 % 0 mm
12:22 -17.3 °C -20.1 °C 34293.4 hPa NNE 20.9 km/h 33.6 km/h 69 % 0 mm
12:28 -17.2 °C -19.9 °C 34293.4 hPa East 23 km/h 28.5 km/h 70 % 0 mm
12:34 -17.1 °C -19.9 °C 34293.4 hPa North 12.7 km/h 25.9 km/h 69 % 0 mm
12:40 -17.1 °C -20 °C 34293.4 hPa East 7.6 km/h 28.5 km/h 68 % 0 mm
12:46 -17.2 °C -20 °C 34293.4 hPa North 15.6 km/h 33.6 km/h 69 % 0 mm
12:52 -17.1 °C -19.9 °C 34279.9 hPa NNE 17.9 km/h 31.1 km/h 69 % 0 mm
12:58 -16.9 °C -19.9 °C 34293.4 hPa NNE 23 km/h 36.2 km/h 67 % 0 mm
13:04 -17.1 °C -20.1 °C 34293.4 hPa NNE 12.7 km/h 20.8 km/h 68 % 0 mm
13:10 -17 °C -19.8 °C 34279.9 hPa NNE 33.6 km/h 38.8 km/h 69 % 0 mm
13:16 -17.1 °C -20 °C 34293.4 hPa East 12.7 km/h 31.1 km/h 68 % 0 mm
13:22 -17.1 °C -19.9 °C 34279.9 hPa NE 20.9 km/h 38.8 km/h 69 % 0 mm
13:28 -16.9 °C -19.8 °C 34279.9 hPa NNE 12.7 km/h 28.5 km/h 69 % 0 mm
13:34 -16.9 °C -19.9 °C 34279.9 hPa NE 10.3 km/h 33.6 km/h 68 % 0 mm
13:40 -17.1 °C -20.1 °C 34279.9 hPa NNE 15.6 km/h 38.8 km/h 67 % 0 mm
13:46 -17.1 °C -20.1 °C 34279.9 hPa NE 12.7 km/h 25.9 km/h 68 % 0 mm
13:52 -17.1 °C -19.9 °C 34279.9 hPa NNE 15.6 km/h 25.9 km/h 69 % 0 mm
13:58 -17.1 °C -19.9 °C 34279.9 hPa NNE 10.3 km/h 25.9 km/h 69 % 0 mm
14:04 -17.1 °C -20.1 °C 34279.9 hPa NE 33.6 km/h 33.6 km/h 68 % 0 mm
14:10 -17.2 °C -20.1 °C 34279.9 hPa NE 26.2 km/h 41.4 km/h 68 % 0 mm
14:16 -17.2 °C -20.2 °C 34279.9 hPa NE 17.9 km/h 33.6 km/h 67 % 0 mm
14:22 -17.2 °C -20 °C 34279.9 hPa NNE 15.6 km/h 33.6 km/h 69 % 0 mm
14:28 -17.2 °C -20.1 °C 34279.9 hPa NE 17.9 km/h 23.3 km/h 68 % 0 mm
14:34 -17.1 °C -19.8 °C 34279.9 hPa NNE 31.4 km/h 38.8 km/h 70 % 0 mm
14:40 -17.1 °C -19.9 °C 34279.9 hPa NNE 17.9 km/h 28.5 km/h 69 % 0 mm
14:46 -17.2 °C -20.1 °C 34279.9 hPa NNE 20.9 km/h 31.1 km/h 68 % 0 mm
14:52 -17.2 °C -20 °C 34279.9 hPa NE 15.6 km/h 18.2 km/h 69 % 0 mm
14:58 -17.1 °C -19.9 °C 34269.7 hPa NNE 17.9 km/h 20.8 km/h 69 % 0 mm
15:04 -17.1 °C -20.1 °C 34279.9 hPa NE 15.6 km/h 36.2 km/h 68 % 0 mm
15:10 -17.1 °C -19.8 °C 34279.9 hPa NE 20.9 km/h 20.9 km/h 70 % 0 mm
15:16 -17.1 °C -19.9 °C 34269.7 hPa East 12.7 km/h 23.3 km/h 69 % 0 mm
15:22 -17.1 °C -20.1 °C 34269.7 hPa ENE 26.2 km/h 28.5 km/h 67 % 0 mm
15:28 -17.1 °C -19.9 °C 34269.7 hPa NE 5.1 km/h 23.3 km/h 69 % 0 mm
15:34 -17.1 °C -20 °C 34279.9 hPa East 20.9 km/h 31.1 km/h 68 % 0 mm
15:40 -17.1 °C -20.1 °C 34279.9 hPa ENE 23 km/h 38.8 km/h 68 % 0 mm
15:46 -17.2 °C -20.1 °C 34279.9 hPa ESE 20.9 km/h 31.1 km/h 68 % 0 mm
15:52 -17.2 °C -20.1 °C 34279.9 hPa ENE 7.6 km/h 31.1 km/h 68 % 0 mm
15:58 -17.2 °C -20.1 °C 34279.9 hPa NNE 20.9 km/h 33.6 km/h 68 % 0 mm
16:04 -17.2 °C -20 °C 34279.9 hPa NE 17.9 km/h 36.2 km/h 69 % 0 mm
16:10 -17.2 °C -20.1 °C 34269.7 hPa NE 31.4 km/h 36.2 km/h 68 % 0 mm
16:16 -17.2 °C -20.1 °C 34269.7 hPa NE 15.6 km/h 31.1 km/h 68 % 0 mm
16:22 -17.3 °C -20.2 °C 34269.7 hPa ENE 10.3 km/h 28.5 km/h 68 % 0 mm
16:28 -17.3 °C -20.2 °C 34269.7 hPa NE 26.2 km/h 31.1 km/h 68 % 0 mm
16:34 -17.3 °C -20 °C 34269.7 hPa NE 28.5 km/h 33.6 km/h 70 % 0 mm
16:40 -17.3 °C -20.1 °C 34269.7 hPa East 5.1 km/h 23.3 km/h 69 % 0 mm
16:46 -17.3 °C -20.1 °C 34269.7 hPa NE 28.5 km/h 28.5 km/h 69 % 0 mm
16:52 -17.3 °C -20.1 °C 34269.7 hPa NE 17.9 km/h 23.3 km/h 69 % 0 mm
17:04 -17.3 °C -20.1 °C 34269.7 hPa NE 12.7 km/h 18.2 km/h 69 % 0 mm
17:10 -17.3 °C -20.1 °C 34269.7 hPa NNE 20.9 km/h 25.9 km/h 69 % 0 mm
17:16 -17.3 °C -20 °C 34269.7 hPa ENE 23 km/h 31.1 km/h 70 % 0 mm
17:22 -17.3 °C -20.1 °C 34269.7 hPa NE 17.9 km/h 28.5 km/h 69 % 0 mm
17:28 -17.3 °C -20.1 °C 34269.7 hPa NE 7.6 km/h 28.5 km/h 69 % 0 mm
17:34 -17.3 °C -20.1 °C 34269.7 hPa NNE 20.9 km/h 31.1 km/h 69 % 0 mm
17:40 -17.3 °C -20.1 °C 34269.7 hPa Calm   18.2 km/h 69 % 0 mm
17:46 -17.3 °C -20.1 °C 34269.7 hPa NNE 7.6 km/h 20.8 km/h 69 % 0 mm
17:52 -17.3 °C -20 °C 34269.7 hPa NE 15.6 km/h 20.8 km/h 70 % 0 mm
17:58 -17.3 °C -20.1 °C 34269.7 hPa NE 12.7 km/h 25.9 km/h 69 % 0 mm
18:04 -17.3 °C -20 °C 34279.9 hPa ENE 2.3 km/h 10.3 km/h 70 % 0 mm
18:10 -17.3 °C -20 °C 34279.9 hPa NE 2.3 km/h 15.6 km/h 70 % 0 mm
18:16 -17.3 °C -19.9 °C 34279.9 hPa NE 2.3 km/h 7.7 km/h 71 % 0 mm
18:22 -17.3 °C -19.9 °C 34279.9 hPa ENE 7.6 km/h 15.6 km/h 71 % 0 mm
18:28 -17.3 °C -19.9 °C 34279.9 hPa NE 7.6 km/h 12.9 km/h 71 % 0 mm
18:34 -17.3 °C -19.8 °C 34279.9 hPa NE 5.1 km/h 7.7 km/h 72 % 0 mm
18:40 -17.3 °C -19.7 °C 34279.9 hPa ENE 2.3 km/h 5.1 km/h 73 % 0 mm
18:46 -17.4 °C -19.8 °C 34279.9 hPa NE 7.6 km/h 7.7 km/h 73 % 0 mm
18:52 -17.4 °C -19.8 °C 34279.9 hPa Calm   7.7 km/h 73 % 0 mm
18:58 -17.4 °C -19.7 °C 34279.9 hPa NE 2.3 km/h 5.1 km/h 74 % 0 mm
19:04 -17.4 °C -19.8 °C 34293.4 hPa NE 5.1 km/h 12.9 km/h 73 % 0 mm
19:10 -17.4 °C -19.8 °C 34293.4 hPa NE 5.1 km/h 7.7 km/h 73 % 0 mm
19:16 -17.4 °C -19.8 °C 34293.4 hPa NE 5.1 km/h 7.7 km/h 73 % 0 mm
19:22 -17.4 °C -19.8 °C 34293.4 hPa NE 2.3 km/h 5.1 km/h 73 % 0 mm
19:28 -17.4 °C -19.7 °C 34293.4 hPa NE 2.3 km/h 5.1 km/h 74 % 0 mm
19:34 -17.4 °C -19.7 °C 34293.4 hPa NE 2.3 km/h 5.1 km/h 74 % 0 mm
19:40 -17.4 °C -19.7 °C 34293.4 hPa NNE 2.3 km/h 7.7 km/h 74 % 0 mm
19:46 -17.4 °C -19.7 °C 34279.9 hPa NNE 2.3 km/h 5.1 km/h 74 % 0 mm
19:52 -17.4 °C -19.7 °C 34279.9 hPa NNE 2.3 km/h 5.1 km/h 74 % 0 mm
19:58 -17.4 °C -19.6 °C 34279.9 hPa NE 2.3 km/h 5.1 km/h 75 % 0 mm
20:04 -17.4 °C -19.8 °C 34279.9 hPa NNE 7.6 km/h 7.7 km/h 73 % 0 mm
20:10 -17.4 °C -19.8 °C 34279.9 hPa NE 7.6 km/h 7.7 km/h 73 % 0 mm
20:17 -17.4 °C -19.8 °C 34279.9 hPa NNE 5.1 km/h 7.7 km/h 73 % 0 mm
20:23 -17.3 °C -19.8 °C 34279.9 hPa NE 5.1 km/h 10.3 km/h 72 % 0 mm
20:29 -17.3 °C -19.7 °C 34279.9 hPa NE 5.1 km/h 10.3 km/h 73 % 0 mm
20:35 -17.4 °C -19.8 °C 34279.9 hPa NE 7.6 km/h 10.3 km/h 73 % 0 mm
20:41 -17.3 °C -19.7 °C 34279.9 hPa NE 2.3 km/h 5.1 km/h 73 % 0 mm
20:47 -17.3 °C -19.8 °C 34279.9 hPa NE 7.6 km/h 10.3 km/h 72 % 0 mm
20:53 -17.3 °C -19.7 °C 34279.9 hPa NE 5.1 km/h 5.1 km/h 73 % 0 mm
20:59 -17.4 °C -19.7 °C 34279.9 hPa NNE 2.3 km/h 7.7 km/h 74 % 0 mm
21:05 -17.4 °C -19.8 °C 34279.9 hPa NE 7.6 km/h 10.3 km/h 73 % 0 mm
21:11 -17.3 °C -19.8 °C 34279.9 hPa NNE 5.1 km/h 10.3 km/h 72 % 0 mm
21:17 -17.3 °C -19.7 °C 34279.9 hPa Calm   12.9 km/h 73 % 0 mm
21:23 -17.3 °C -19.8 °C 34279.9 hPa NNE 7.6 km/h 7.7 km/h 72 % 0 mm
21:30 -17.3 °C -19.7 °C 34279.9 hPa NNE 2.3 km/h 10.3 km/h 73 % 0 mm
21:37 -17.3 °C -19.8 °C 34279.9 hPa NE 2.3 km/h 10.3 km/h 72 % 0 mm
21:43 -17.3 °C -19.7 °C 34279.9 hPa NE 10.3 km/h 10.3 km/h 73 % 0 mm
21:49 -17.3 °C -19.8 °C 34279.9 hPa NNE 5.1 km/h 10.3 km/h 72 % 0 mm
21:55 -17.3 °C -19.8 °C 34279.9 hPa NE 5.1 km/h 5.1 km/h 72 % 0 mm
22:01 -17.3 °C -19.8 °C 34279.9 hPa NE 5.1 km/h 7.7 km/h 72 % 0 mm
22:07 -17.3 °C -19.7 °C 34269.7 hPa Calm   5.1 km/h 73 % 0 mm
22:13 -17.4 °C -19.7 °C 34269.7 hPa NE 5.1 km/h 7.7 km/h 74 % 0 mm
22:19 -17.4 °C -19.7 °C 34269.7 hPa NE 7.6 km/h 10.3 km/h 74 % 0 mm
22:25 -17.4 °C -19.8 °C 34269.7 hPa NE 7.6 km/h 10.3 km/h 73 % 0 mm
22:31 -17.4 °C -19.7 °C 34269.7 hPa NE 2.3 km/h 7.7 km/h 74 % 0 mm
22:37 -17.4 °C -19.7 °C 34269.7 hPa NNE 10.3 km/h 10.3 km/h 74 % 0 mm
22:43 -17.3 °C -19.6 °C 34269.7 hPa NE 2.3 km/h 10.3 km/h 74 % 0 mm
22:49 -17.3 °C -19.7 °C 34269.7 hPa ENE 5.1 km/h 15.6 km/h 73 % 0 mm
22:55 -17.3 °C -19.6 °C 34269.7 hPa NE 2.3 km/h 10.3 km/h 74 % 0 mm
23:01 -17.3 °C -19.6 °C 34269.7 hPa NE 5.1 km/h 12.9 km/h 74 % 0 mm
23:07 -17.3 °C -19.5 °C 34269.7 hPa NNE 7.6 km/h 15.6 km/h 75 % 0 mm
23:13 -17.3 °C -19.5 °C 34279.9 hPa NNE 2.3 km/h 10.3 km/h 75 % 0 mm
23:19 -17.4 °C -19.4 °C 34279.9 hPa NE 2.3 km/h 5.1 km/h 76 % 0 mm
23:25 -17.4 °C -19.4 °C 34269.7 hPa NE 5.1 km/h 10.3 km/h 76 % 0 mm
23:31 -17.4 °C -19.4 °C 34269.7 hPa NE 5.1 km/h 15.6 km/h 76 % 0 mm
23:37 -17.4 °C -19.4 °C 34269.7 hPa NE 5.1 km/h 10.3 km/h 76 % 0 mm
23:43 -17.4 °C -19.4 °C 34269.7 hPa ENE 10.3 km/h 12.9 km/h 77 % 0 mm
23:49 -17.4 °C -19.4 °C 34269.7 hPa NE 2.3 km/h 12.9 km/h 77 % 0 mm
23:55 -17.4 °C -19.3 °C 34269.7 hPa ENE 10.3 km/h 10.3 km/h 78 % 0 mm
Meteo18
Compliments of Weather Underground - 4 mb

Script developed by  Jim McMurry - jmcmurry@mwt.net Adapted for the template by  Wim van der Kuil - Leuven-Template.eu

You find our weather info also at:

European Weather Network

Weather Underground

Equipment we use:

Weather-station
Davis Vue

Weather-program
Meteobridge

Weather-server
Raspberry PI 2 B+

Provider
1 and 1

Davis Vue

Meteobridge

Raspberry PI 2 B+

1 and 1